www.pogodaiklimat.ru

Погода и климат >> Архив погоды >> Венгрия >> Sarmellek


ПОГОДА в Sarmellek

  • Прогноз погоды в Sarmellek
  • Монитор погоды в Sarmellek
  • Климат города

АРХИВ ПОГОДЫ в Sarmellek

Время (UTC), дата Ветер
(напр.,м/с)
 
Видим.   Явления Облачность Т
(С)
Тd
(С)
f
(%)
Тe
(С)
Тes
(С)
Комфортность P
(гПа)
Po
(гПа)
Тmin
(С)
Tmax
(С)
R
(мм)
R24
(мм)
S
(см)
13 9.10 В 1 25 км 1/1 1000 м
[Cu hum]
+21.9 +13.8 60 +25 +30 комфорт 1023.3 1009.1
14 9.10 З 1 25 км ясно +22.2 +14.6 62 +26 +29 душно 1023.2 1009.0
15 9.10 СВ 1 25 км ясно +21.6 +14.3 63 +25 +26 комфорт 1023.1 1008.9
16 9.10 В 1 25 км ясно +20.0 +14.6 71 +23 +23 комфорт 1023.3 1009.0
17 9.10 В 1 н/о н/о +16.2 +14.4 89 +17 +17 1023.7 1009.2
18 9.10 З 1 н/о н/о +14.7 +13.7 94 +15 +15 1024.0 1009.4 +22.6
19 9.10 СЗ 1 н/о н/о +13.9 +13.6 98 +14 +14 1024.3 1009.7
20 9.10 СЗ 1 н/о н/о +13.0 +12.8 99 +13 +13 1024.5 1009.8
21 9.10 СЗ 2 н/о н/о +11.5 +11.5 100 +10 +10 1024.9 1010.2
22 9.10 СЗ 2 н/о н/о +11.4 +11.2 99 +10 +10 1025.1 1010.4
23 9.10 СЗ 1 н/о н/о +10.9 +10.7 99 +10 +10 1025.0 1010.2
00 10.10 СЗ 2 н/о н/о +9.9 +9.8 99 +8 +8 1025.0 1010.2
01 10.10 СЗ 3 н/о н/о +9.0 +8.9 99 +6 +6 1025.3 1010.4
02 10.10 З 1 н/о н/о +8.1 +8.0 99 +7 +7 1025.4 1010.5
03 10.10 СЗ 2 н/о н/о +8.0 +7.9 99 +6 +6 1025.4 1010.5
04 10.10 СЗ 1 н/о н/о +7.9 +7.8 99 +7 +7 1025.3 1010.4
05 10.10 СЗ 1 800 м туман местами 1/0
[Ac lent]
+7.6 +7.5 99 +7 +7 1025.1 1010.2
06 10.10 С 1 100 м туман 1/0
[Ac lent Ci sp]
+7.7 +7.6 99 +7 +7 1025.5 1010.6
07 10.10 З 1 100 м туман 3/3 60 м
[St]
+9.5 +9.4 99 +9 +10 1025.9 1011.0
08 10.10 СВ 1 4000 м в посл. час туман ясно +13.5 +13.3 99 +14 +17 1026.1 1011.4
09 10.10 В 2 8000 м {туман} ясно +16.5 +14.2 86 +17 +22 1025.9 1011.4
10 10.10 СВ 1 12 км ясно +18.3 +13.6 74 +20 +28 1025.8 1011.4
11 10.10 ЮВ 2 17 км 1/0
[Ci sp]
+20.0 +14.4 70 +23 +30 комфорт 1025.4 1011.1
12 10.10 В 2 17 км {туман} 1/1 600 м
[Cu hum Ci sp]
+21.0 +14.9 68 +25 +31 комфорт 1024.8 1010.5
13 10.10 СВ 1 20 км 1/1 1000 м
[Cu hum Ci sp]
+21.5 +13.7 61 +24 +29 комфорт 1024.3 1010.1
14 10.10 С 1 20 км 1/1 1080 м
[Cu hum Ci sp]
+22.0 +13.4 58 +25 +28 комфорт 1023.8 1009.6
15 10.10 СВ 2 25 км 1/0
[Ci sp]
+21.3 +13.5 61 +24 +25 комфорт 1023.5 1009.3
16 10.10 СВ 1 25 км ясно +19.9 +13.1 65 +23 +23 комфорт 1023.4 1009.1
17 10.10 В 2 н/о н/о +17.3 +12.2 72 +18 +18 1023.8 1009.4
18 10.10 СЗ 1 н/о н/о +13.5 +11.4 87 +14 +14 1024.4 1009.8 +22.1
19 10.10 СЗ 1 н/о н/о +12.7 +12.1 96 +13 +13 1024.6 1009.9
20 10.10 СЗ 1 н/о н/о +11.4 +11.1 98 +11 +11 1024.7 1010.0
21 10.10 СЗ 2 н/о н/о +10.9 +10.7 99 +9 +9 1024.7 1009.9
22 10.10 СЗ 2 н/о н/о +10.0 +9.9 99 +8 +8 1024.7 1009.9
23 10.10 СЗ 1 н/о н/о +9.0 +8.9 99 +8 +8 1024.7 1009.8
00 11.10 СЗ 1 н/о н/о +9.0 +8.9 99 +8 +8 1024.7 1009.8
01 11.10 СЗ 1 н/о н/о +8.4 +8.3 99 +7 +7 1024.5 1009.6
02 11.10 СЗ 2 н/о н/о +7.5 +7.4 99 +5 +5 1024.1 1009.2
03 11.10 СЗ 1 н/о н/о +7.0 +6.9 99 +6 +6 1024.2 1009.2
04 11.10 СЗ 2 н/о н/о +7.2 +7.1 99 +5 +5 1024.2 1009.2
05 11.10 СЗ 2 800 м туман местами ясно +6.4 +6.3 99 +4 +4 1024.1 1009.1
06 11.10 СЗ 1 2200 м в посл. час туман ясно +6.5 +6.4 99 +5 +5 1024.5 1009.5 +6.3 0
07 11.10 СЗ 1 4800 м дымка ясно +10.1 +10.0 99 +9 +11 1024.5 1009.7
08 11.10 СВ 1 6000 м ясно +14.0 +12.9 93 +14 +18 1024.3 1009.7
09 11.10 В 2 7000 м ясно +17.0 +13.1 78 +17 +22 1024.3 1009.8
10 11.10 В 2 8000 м ясно +18.7 +13.1 70 +20 +27 1024.1 1009.7
11 11.10 С 2 8000 м ясно +19.5 +14.5 73 +22 +29 комфорт 1023.5 1009.2
12 11.10 СВ 3 9000 м ясно +20.2 +13.4 65 +23 +28 комфорт 1023.1 1008.8
13 11.10 СВ 2 9000 м ясно +21.1 +14.0 64 +24 +28 комфорт 1022.5 1008.3
14 11.10 СВ 2 9000 м ясно +21.3 +13.2 60 +24 +26 комфорт 1022.3 1008.1
15 11.10 В 2 10 км ясно +21.1 +13.0 60 +23 +24 комфорт 1022.0 1007.8
16 11.10 СВ 1 10 км ясно +19.9 +12.9 64 +23 +23 комфорт 1022.1 1007.8
17 11.10 СВ 2 н/о н/о +16.8 +12.7 77 +17 +17 1022.6 1008.2
18 11.10 штиль 0 н/о н/о +13.3 +11.5 89 +13 +13 1023.3 1008.7 +21.4
19 11.10 СЗ 1 н/о н/о +12.4 +11.8 96 +12 +12 1023.8 1009.1
20 11.10 СЗ 1 н/о н/о +11.4 +10.9 97 +11 +11 1024.1 1009.4
21 11.10 штиль 0 н/о н/о +11.5 +11.3 99 +11 +11 1024.5 1009.8
22 11.10 штиль 0 н/о н/о +10.3 +10.1 99 +9 +9 1024.8 1010.0
23 11.10 штиль 0 н/о н/о +9.6 +9.5 99 +9 +9 1024.8 1010.0
00 12.10 штиль 0 н/о н/о +9.3 +9.2 99 +8 +8 1024.9 1010.0
01 12.10 штиль 0 н/о н/о +9.9 +9.8 99 +9 +9 1025.0 1010.2
02 12.10 СЗ 1 н/о н/о +7.8 +7.8 100 +7 +7 1025.2 1010.3
03 12.10 штиль 0 н/о н/о +8.4 +8.3 99 +7 +7 1025.4 1010.5
04 12.10 штиль 0 н/о н/о +7.5 +7.4 99 +6 +6 1025.9 1010.9
05 12.10 штиль 0 2800 м местами туман поземный ясно +7.2 +7.1 99 +6 +6 1026.3 1011.3
06 12.10 З 1 900 м туман местами ясно +6.6 +6.5 99 +5 +6 1026.9 1011.9 +5.9
07 12.10 штиль 0 4200 м в посл. час туман ясно +10.7 +10.5 99 +10 +12 1027.3 1012.5
08 12.10 В 2 4800 м дымка ясно +14.1 +12.7 91 +14 +17 1027.7 1013.1
09 12.10 В 2 7000 м {туман} ясно +16.2 +11.8 75 +16 +21 1027.8 1013.3
10 12.10 В 2 8000 м ясно +17.7 +12.2 70 +18 +25 1027.9 1013.4
11 12.10 ЮВ 2 9000 м ясно +19.1 +11.2 60 +21 +27 комфорт 1027.6 1013.2
12 12.10 В 2 10 км {туман} ясно +19.6 +11.6 60 +22 +28 комфорт 1027.2 1012.8
13 12.10 СВ 1 10 км ясно +20.0 +12.0 60 +23 +28 комфорт 1026.9 1012.6
14 12.10 С 2 12 км ясно +20.1 +12.1 60 +22 +25 комфорт 1026.7 1012.4
15 12.10 СВ 1 12 км ясно +19.9 +12.9 64 +23 +24 комфорт 1026.7 1012.4
16 12.10 СВ 1 10 км ясно +18.2 +12.4 69 +20 +20 1026.8 1012.4
17 12.10 СЗ 1 н/о н/о +14.4 +11.2 81 +15 +15 1027.4 1012.8
18 12.10 СЗ 1 н/о н/о +13.6 +11.5 87 +14 +14 1027.5 1012.8 +20.4
19 12.10 СЗ 1 н/о н/о +12.0 +11.4 96 +12 +12 1028.1 1013.3
20 12.10 СЗ 1 н/о н/о +10.7 +10.2 97 +10 +10 1028.5 1013.7
21 12.10 СЗ 1 н/о н/о +9.8 +9.7 99 +9 +9 1028.8 1013.9
22 12.10 СЗ 1 н/о н/о +9.6 +9.5 99 +9 +9 1028.8 1013.9
23 12.10 СЗ 1 н/о н/о +9.2 +9.2 100 +8 +8 1028.7 1013.8
00 13.10 СЗ 1 н/о н/о +8.8 +8.7 99 +8 +8 1028.7 1013.8
01 13.10 СЗ 1 н/о н/о +7.7 +7.6 99 +7 +7 1028.8 1013.8
02 13.10 штиль 0 н/о н/о +7.9 +7.8 99 +7 +7 1028.7 1013.7
03 13.10 СЗ 1 н/о н/о +6.7 +6.6 99 +5 +5 1028.7 1013.7
04 13.10 СЗ 1 н/о н/о +6.7 +6.6 99 +5 +5 1028.7 1013.7
05 13.10 СЗ 1 2000 м местами туман поземный ясно +5.6 +5.5 99 +4 +4 1028.7 1013.6
06 13.10 СЗ 1 4000 м дымка ясно +6.0 +5.9 99 +5 +5 1028.9 1013.8 +5.4 0
07 13.10 штиль 0 4000 м дымка ясно +9.0 +8.9 99 +8 +10 1029.0 1014.1
08 13.10 С 1 5000 м дымка ясно +13.5 +13.2 98 +14 +17 1029.0 1014.3
09 13.10 В 1 6000 м ясно +17.2 +13.3 78 +18 +24 1028.9 1014.4
10 13.10 В 1 6000 м ясно +18.6 +11.9 65 +20 +28 1028.8 1014.4
11 13.10 СВ 2 10 км ясно +19.4 +12.2 63 +21 +28 комфорт 1028.4 1014.0
12 13.10 СВ 2 13 км ясно +20.6 +12.6 60 +23 +29 комфорт 1027.3 1013.0
13 13.10 В 2 16 км ясно +20.7 +12.4 59 +24 +28 комфорт 1026.8 1012.5
14 13.10 СВ 2 16 км ясно +20.7 +11.6 56 +23 +26 комфорт 1026.4 1012.1
15 13.10 СВ 2 16 км ясно +20.0 +11.5 58 +22 +23 комфорт 1026.0 1011.7
16 13.10 СВ 2 16 км ясно +18.5 +11.1 62 +19 +19 1026.0 1011.6
17 13.10 В 2 10 км ясно +14.5 +10.7 78 +14 +14 1026.3 1011.7
18 13.10 СЗ 1 6000 м ясно +12.5 +10.4 87 +12 +12 1026.4 1011.7 +20.9 0
19 13.10 СЗ 1 6000 м ясно +11.4 +9.7 89 +11 +11 1026.5 1011.7
20 13.10 СЗ 1 6000 м ясно +9.8 +9.3 97 +9 +9 1026.5 1011.7
21 13.10 СЗ 2 4000 м дымка ясно +9.6 +9.3 98 +8 +8 1026.5 1011.6
22 13.10 СЗ 1 н/о н/о +8.8 +8.7 99 +8 +8 1026.1 1011.2
23 13.10 СЗ 1 н/о н/о +8.0 +8.0 100 +7 +7 1026.1 1011.2
00 14.10 СЗ 2 н/о н/о +7.5 +7.4 99 +5 +5 1026.0 1011.0
01 14.10 СЗ 2 н/о н/о +7.1 +7.1 100 +5 +5 1026.0 1011.0
02 14.10 СЗ 3 н/о н/о +7.3 +7.2 99 +4 +4 1025.8 1010.8
03 14.10 СЗ 1 н/о н/о +6.8 +6.7 99 +6 +6 1025.6 1010.6
04 14.10 СЗ 1 н/о н/о +6.2 +6.1 99 +5 +5 1025.3 1010.3
05 14.10 СЗ 1 2000 м дымка ясно +5.3 +5.2 99 +4 +4 1025.0 1009.9
06 14.10 штиль 0 600 м туман местами 1/0
[Ac lent]
+5.6 +5.5 99 +4 +5 1025.0 1010.0
07 14.10 З 1 8000 м в посл. час туман 1/0
[Ci sp]
+8.7 +8.6 99 +8 +9 1025.1 1010.2
08 14.10 В 1 17 км 1/0
[Cc]
+14.2 +11.0 81 +15 +18 1024.7 1010.1
09 14.10 ЮВ 2 25 км {туман} 1/0
[Ci sp]
+16.3 +10.4 68 +16 +21 1024.3 1009.8
10 14.10 ЮВ 4
{7}
30 км ясно +18.2 +6.4 46 +18 +22 1023.9 1009.5
11 14.10 ЮВ 4
{8}
30 км 1/0
[Ci sp]
+19.5 +5.6 40 +20 +24 1023.7 1009.4
12 14.10 ЮВ 4 30 км {туман} 1/0
[Ci sp]
+20.4 +2.7 31 +21 +25 комфорт 1022.7 1008.4
13 14.10 ЮВ 3 30 км 1/0
[Ci sp]
+21.0 +5.8 37 +22 +26 комфорт 1022.0 1007.8
14 14.10 В 4 40 км 3/0
[Ac lent Ci sp]
+21.5 +2.7 29 +21 +23 комфорт 1021.5 1007.3
15 14.10 ЮВ 3 40 км 1/0
[Ac lent Ci sp]
+20.5 +1.9 29 +21 +22 комфорт 1021.2 1007.0
16 14.10 В 2 40 км 1/0
[Ac lent Ci sp]
+18.4 +3.8 38 +19 +19 1021.5 1007.2
17 14.10 В 2 30 км 1/0
[Ac lent Ci sp]
+16.1 +4.2 45 +16 +16 1022.1 1007.6
18 14.10 В 1 25 км 1/0
[Ac lent Ci sp]
+11.4 +6.3 71 +11 +11 1022.4 1007.7 +21.7
19 14.10 В 2 20 км 1/0
[Ci sp]
+12.1 +3.8 57 +11 +11 1022.5 1007.8
20 14.10 З 1 20 км 4/0
[Ci sp]
+9.2 +5.6 78 +9 +9 1022.8 1008.0
21 14.10 штиль 0 н/о н/о +10.9 +4.8 66 +10 +10 1022.8 1008.1
22 14.10 З 2 н/о н/о +8.3 +4.5 77 +7 +7 1022.9 1008.0
23 14.10 штиль 0 н/о н/о +7.3 +4.6 83 +6 +6 1022.8 1007.9
00 15.10 СЗ 1 н/о н/о +6.1 +4.7 91 +5 +5 1022.9 1007.9
01 15.10 СЗ 1 н/о н/о +5.8 +4.1 89 +5 +5 1022.8 1007.8
02 15.10 СЗ 1 н/о н/о +5.3 +3.6 89 +4 +4 1022.7 1007.7
03 15.10 С 1 н/о н/о +4.8 +3.0 88 +3 +3 1022.8 1007.7
04 15.10 СЗ 1 н/о н/о +4.7 +3.5 92 +3 +3 1022.6 1007.5
05 15.10 СЗ 1 20 км 3/0
[Ci sp]
+4.3 +3.6 95 +3 +3 1022.4 1007.3
06 15.10 СЗ 1 25 км 8/0
[Ci]
+4.4 +3.8 96 +3 +3 1022.6 1007.5 +4.1 0
07 15.10 СЗ 1 30 км 8/0
[Ci sp]
+6.8 +5.3 90 +6 +7 1023.2 1008.2
08 15.10 С 1 30 км 8/0
[Ci sp]
+11.9 +7.8 76 +12 +15 1022.9 1008.2
09 15.10 В 1 30 км 8/0
[Ci sp]
+15.1 +6.4 56 +16 +20 1022.7 1008.2
10 15.10 ЮВ 3 30 км 8/0
[Ci sp]
+16.2 +5.8 50 +16 +20 1022.6 1008.1
11 15.10 ЮВ 3 30 км 8/0
[Ci sp]
+17.5 +7.5 52 +18 +22 1022.1 1007.7
12 15.10 ЮВ 2 30 км 9/0
[Cs]
+17.5 +8.4 55 +18 +23 1021.7 1007.3
13 15.10 ЮВ 3 30 км 9/0
[Cs]
+18.7 +7.2 47 +19 +22 1021.2 1006.9
14 15.10 ЮВ 3 30 км 9/0
[Cs]
+18.8 +7.3 47 +19 +21 1021.2 1006.9
15 15.10 Ю 1 30 км 9/0
[Cs]
+16.4 +8.9 61 +17 +18 1021.3 1006.9
16 15.10 ЮЗ 2 30 км 9/0
[Cs]
+15.5 +9.6 68 +15 +15 1021.4 1006.9
17 15.10 З 2 н/о н/о +14.1 +9.3 73 +14 +14 1021.6 1007.0
18 15.10 СЗ 1 н/о н/о +12.3 +8.4 77 +12 +12 1021.9 1007.2 +18.9
19 15.10 СЗ 1 н/о н/о +10.8 +8.0 83 +11 +11 1022.2 1007.5
20 15.10 СЗ 1 н/о н/о +9.6 +8.0 90 +9 +9 1022.3 1007.5
21 15.10 З 1 н/о н/о +8.5 +7.9 96 +8 +8 1022.5 1007.6
22 15.10 СЗ 2 н/о н/о +8.7 +8.3 97 +7 +7 1022.2 1007.4
23 15.10 СЗ 2 н/о н/о +9.1 +8.5 96 +7 +7 1022.2 1007.4
00 16.10 СЗ 1 н/о н/о +9.0 +7.9 93 +8 +8 1022.1 1007.3
01 16.10 Ю 1 н/о н/о +8.7 +8.1 96 +8 +8 1022.3 1007.5
02 16.10 СЗ 1 н/о н/о +8.2 +7.8 97 +7 +7 1022.0 1007.1
03 16.10 штиль 0 н/о н/о +8.6 +8.3 98 +8 +8 1021.8 1007.0
04 16.10 СВ 1 н/о н/о +8.2 +7.9 98 +7 +7 1021.9 1007.0
05 16.10 штиль 0 8000 м 9/0
[Ac As]
+7.9 +7.6 98 +7 +7 1022.0 1007.1
06 16.10 З 1 12 км 9/0
[Ac As Ci sp]
+8.8 +8.5 98 +8 +8 1022.1 1007.3 +7.5
07 16.10 В 1 10 км 8/0
[Ac As Ci sp]
+9.7 +9.4 98 +9 +10 1022.6 1007.8
08 16.10 штиль 0 10 км 8/0
[Ac As Ci sp]
+11.0 +10.4 96 +10 +12 1022.7 1008.0
09 16.10 З 1 8000 м 9/0
[Ac As Ci sp]
+12.7 +10.4 86 +13 +16 1022.8 1008.2
10 16.10 В 2 8000 м 9/0
[Ac As Ci sp]
+14.0 +9.8 76 +14 +17 1022.8 1008.2
11 16.10 В 1 13 км 10/0
[Ac As]
+15.1 +10.1 72 +16 +18 1022.6 1008.1

 

Местоположение метеостанции Sarmellek (Венгрия): широта 46.68 долгота 17.17 высота над уровнем моря 125 м.

В архиве по умолчанию представлена погода в Sarmellek за последнюю неделю. Архивные данные за месяц целиком и за предыдущие месяцы, начиная с января 2011 года, Вы можете получить, выбрав интересующий диапазон дат из раскрывающегося списка и нажав кнопку "Ввод!".


*Определитесь, кто Вы:
робот инопланетянин человек

Внимание! Время в таблицах - всемирное. Для получения местного времени необходимо прибавить поправку, которая в Sarmellek равна 1 ч.

Смотрите также архив погоды в соседних городах и на ближайших метеорологических станциях:

Погода в Nagykanizsa (Венгрия) (30 км)
Погода в Zalaegerszeg (Венгрия) (35 км)
Погода в Kaposvar (Венгрия) (61 км)
Погода в Veszprem (Венгрия) (66 км)
Погода в Szentgotthard (Венгрия) (70 км)
Погода в Siofok (Венгрия) (72 км)
Погода в Varazdin (Хорватия) (74 км)
Погода в Murska Sobota (Словения) (76 км)
Погода в Szombathely (Венгрия) (77 км)
Погода в Kleinzicken (Австрия) (86 км)

Пояснения к столбцам:

Ветер - указаны скорость ветра в м/с - средняя за 10 мин, порывы в срок и между сроками (в фигурных скобках) и направление, откуда дует ветер: С - северный, СВ - северо-восточный, В - восточный, ЮВ - юго-восточный, Ю - южный, ЮЗ - юго-западный, З - западный, СЗ - северо-западный.
Видимость - горизонтальная дальность видимости в метрах или километрах. При видимости от 1 до 10 км при отсутствии осадков обычно наблюдается дымка, при ухудшении видимости до 1 км и менее - туман. В сухую погоду видимость может ухудшаться дымом, пылью или мглою.
Явления - указаны атмосферные явления, наблюдавшиеся в срок или в последний час перед сроком; фигурными скобками обозначены явления, наблюдавшиеся между сроками (за 1-3 часа до срока); квадратными скобками обозначены град или гололедные отложения с указанием их диаметра в мм.
Облачность - указаны через наклонную черту общая и нижняя облачность в баллах и высота нижней границы облаков в метрах; квадратными скобками обозначены формы облаков: Ci - перистые, Cs - перисто-слоистые, Cc - перисто-кучевые, Ac - высококучевые, As - высокослоистые, Sc - слоисто-кучевые, Ns - слоисто-дождевые, Cu - кучевые, Cb - кучево-дождевые. Подробнее классификацию облаков см. в Атласе облаков (PDF).
T - Температура воздуха - температура, измеренная на высоте 2 м над землей.
Td - Температура точки росы - температура, при понижении до которой содержащийся в воздухе водяной пар достигнет насыщения.
f - Относительная влажность воздуха - влажноcть воздуха, измеренная на высоте 2 м над землей.
Te - Эффективная температура - температура, которую ощущает одетый по сезону человек в тени. Характеристика душности погоды. При расчете учитывается влияние влажности воздуха и скорости ветра на теплоощущения человека.
Tes - Эффективная температура на солнце - температура, которую ощущает человек, с поправкой на солнечный нагрев. Характеристика знойности погоды. Зависит от высоты солнца над горизонтом, облачности и скорости ветра. Ночью, в пасмурную погоду, а также при ветре 12 м/с и более поправка равна нулю.
P - Атмосферное давление - приведенное к уровню моря атмосферное давление.
Po - Атмосферное давление - измеренное на уровне метеостанции атмосферное давление.
Tmin - Минимальная температура - минимум температуры воздуха на высоте 2 м над землей.
Tmax - Максимальная температура - максимум температуры воздуха на высоте 2 м над землей.
R - Количество осадков - Количество выпавших осадков за период времени, мм. При наведении курсора мыши на число - период времени, за который выпало указанное количество осадков.
R24 - Количество осадков - Количество выпавших осадков за 24 часа, мм.
S - Снежный покров - Высота снежного покрова, см. При наведении курсора мыши на число - состояние снежного покрова и степень покрытия местности в баллах.